DW8722 Weather Reports


Display with metric or nautical units.
time (UTC)temp
F
wind
direction
speed
MPH
gust
MPH
rain 1hr
in
rain 24hr
in
rain mn
in
humidity
%
barometer
mb
20260906125545 75 99 0.0 0.0 0.00 0.00 0.00 91 1013.5
20260906124519 74 99 0.0 0.0 0.00 0.00 0.00 91 1013.2
20260906123539 74 107 0.0 0.0 0.00 0.00 0.00 91 1013.2
20260906122550 74 107 0.0 0.0 0.00 0.00 0.00 90 1013.1
20260906121547 73 107 0.0 0.0 0.00 0.00 0.00 90 1013.0
20260906120540 74 109 0.0 0.0 0.00 0.00 0.00 90 1012.9
20260906114428 74 142 0.0 0.0 0.00 0.00 0.00 90 1012.7
20260906113412 74 142 0.0 0.0 0.00 0.00 0.00 90 1012.8
20260906112400 74 142 0.0 0.0 0.00 0.00 0.00 90 1012.7
20260906105139 74 142 0.0 0.0 0.00 0.00 0.00 90 1012.2
20260906104136 74 142 0.0 0.0 0.00 0.00 0.00 89 1012.2
20260906103123 74 142 0.0 0.0 0.00 0.00 0.00 89 1012.1
20260906102051 74 144 0.0 0.0 0.00 0.00 0.00 89 1012.1
20260906101031 74 146 0.0 0.0 0.00 0.00 0.00 89 1012.1
20260906094841 75 146 0.0 0.0 0.00 0.00 0.00 88 1012.0
20260906093819 75 146 0.0 0.0 0.00 0.00 0.00 87 1012.0
20260906092809 75 146 0.0 0.0 0.00 0.00 0.00 87 1011.8
20260906090558 75 146 0.0 0.0 0.00 0.00 0.00 86 1011.8
20260906085622 76 146 0.0 0.0 0.00 0.00 0.00 86 1011.7
20260906083444 76 146 0.0 0.0 0.00 0.00 0.00 86 1011.6
20260906081315 76 148 0.0 1.0 0.00 0.00 0.00 85 1011.6
20260906080339 76 140 0.0 3.0 0.00 0.00 0.00 85 1011.5
20260906074227 77 156 0.0 0.0 0.00 0.00 0.00 83 1011.4
20260906072140 77 156 0.0 0.0 0.00 0.00 0.00 83 1011.6
20260906071139 78 156 0.0 0.0 0.00 0.00 0.00 82 1011.7
20260906070159 78 156 0.0 0.0 0.00 0.00 0.00 83 1011.8
20260906065202 78 156 0.0 0.0 0.00 0.00 0.00 82 1011.9
20260906064202 78 138 0.0 0.0 0.00 0.00 0.00 82 1011.9
20260906063132 78 130 1.0 0.0 0.00 0.00 0.00 81 1011.8
20260906061026 79 141 1.0 4.0 0.00 0.00 0.00 81 1011.8
20260906055954 78 164 1.0 4.0 0.00 0.00 0.00 80 1012.0
20260906053849 79 134 0.0 0.0 0.00 0.00 0.00 79 1012.0
20260906052821 79 134 0.0 0.0 0.00 0.00 0.00 78 1011.9
20260906051834 80 161 0.0 0.0 0.00 0.00 0.00 77 1011.9
20260906050833 80 161 0.0 0.0 0.00 0.00 0.00 76 1011.7
20260906045815 80 161 0.0 0.0 0.00 0.00 0.00 75 1011.6
20260906044816 81 161 0.0 0.0 0.00 0.00 0.00 75 1011.7
20260906043827 81 161 0.0 0.0 0.00 0.00 0.00 74 1011.8
20260906042824 82 161 0.0 4.0 0.00 0.00 0.00 73 1011.8
20260906041802 82 136 1.0 4.0 0.00 0.00 0.00 72 1011.9
20260906040806 82 136 0.0 3.0 0.00 0.00 0.00 71 1012.0
20260906035747 83 165 0.0 1.0 0.00 0.00 0.00 70 1011.8
20260906034731 83 161 1.0 7.0 0.00 0.00 0.00 70 1011.8
20260906033725 83 171 2.0 7.0 0.00 0.00 0.00 70 1011.8
20260906032733 84 173 1.0 3.0 0.00 0.00 0.00 69 1011.7
20260906031751 84 209 0.0 3.0 0.00 0.00 0.00 69 1011.6
20260906024523 85 169 1.0 5.0 0.00 0.00 0.00 68 1011.6
20260906023514 85 171 1.0 6.0 0.00 0.00 0.00 67 1011.5
20260906021350 86 143 2.0 6.0 0.00 0.00 0.00 66 1011.0
20260906020328 86 156 2.0 9.0 0.00 0.00 0.00 65 1010.9
20260906015305 86 179 3.0 9.0 0.00 0.00 0.00 65 1010.9
20260906013145 87 167 3.0 7.0 0.00 0.00 0.00 65 1010.7
20260906011100 88 160 4.0 11.0 0.00 0.00 0.00 63 1010.4
20260906010107 89 125 6.0 16.0 0.00 0.00 0.00 61 1010.3
20260906005128 90 161 8.0 16.0 0.00 0.00 0.00 59 1010.1
20260906004143 92 144 8.0 17.0 0.00 0.00 0.00 54 1010.0
20260906000909 98 157 3.0 9.0 0.00 0.00 0.00 43 1009.8
20260905235854 98 148 3.0 9.0 0.00 0.00 0.00 42 1009.6
20260905234846 99 183 1.0 6.0 0.00 0.00 0.00 41 1009.6
20260905233823 99 123 1.0 0.0 0.00 0.00 0.00 40 1009.5
20260905232824 99 146 3.0 6.0 0.00 0.00 0.00 41 1009.5
20260905231823 99 94 1.0 3.0 0.00 0.00 0.00 41 1009.5
20260905230802 99 137 0.0 2.0 0.00 0.00 0.00 41 1009.6
20260905225814 99 67 0.0 0.0 0.00 0.00 0.00 40 1009.5
20260905224821 100 72 1.0 5.0 0.00 0.00 0.00 40 1009.5
20260905223842 100 88 0.0 5.0 0.00 0.00 0.00 39 1009.4
20260905222837 100 310 0.0 1.0 0.00 0.00 0.00 40 1009.4
20260905221806 101 182 3.0 12.0 0.00 0.00 0.00 39 1009.4
20260905220747 101 190 4.0 12.0 0.00 0.00 0.00 39 1009.5
20260905215731 101 159 4.0 8.0 0.00 0.00 0.00 40 1009.6
20260905214719 101 94 1.0 0.0 0.00 0.00 0.00 40 1009.7
20260905213713 101 145 3.0 9.0 0.00 0.00 0.00 40 1009.7
20260905212702 101 180 3.0 8.0 0.00 0.00 0.00 40 1009.9
20260905210557 101 213 3.0 7.0 0.00 0.00 0.00 39 1010.1
20260905205526 100 186 3.0 5.0 0.00 0.00 0.00 40 1010.3
20260905204508 100 174 2.0 4.0 0.00 0.00 0.00 40 1010.4
20260905203453 100 186 2.0 7.0 0.00 0.00 0.00 41 1010.5
20260905202445 100 149 3.0 9.0 0.00 0.00 0.00 41 1010.7
20260905200345 100 171 4.0 10.0 0.00 0.00 0.00 41 1011.0
20260905194245 98 5 1.0 8.0 0.00 0.00 0.00 42 1011.3
20260905193257 97 172 2.0 8.0 0.00 0.00 0.00 45 1011.5
20260905192253 97 330 1.0 6.0 0.00 0.00 0.00 44 1011.6
20260905191311 98 159 2.0 6.0 0.00 0.00 0.00 44 1011.9
20260905185148 98 172 2.0 7.0 0.00 0.00 0.00 45 1012.3
20260905184156 97 161 4.0 15.0 0.00 0.00 0.00 46 1012.4
20260905183151 96 168 2.0 15.0 0.00 0.00 0.00 48 1012.5
20260905182127 97 88 2.0 9.0 0.00 0.00 0.00 47 1012.6
20260905181128 97 150 2.0 9.0 0.00 0.00 0.00 46 1012.7
20260905180054 97 103 6.0 11.0 0.00 0.00 0.00 47 1013.1
20260905175054 96 194 2.0 11.0 0.00 0.00 0.00 50 1013.2
20260905174115 95 198 0.0 10.0 0.00 0.00 0.00 50 1013.3
20260905173051 94 211 3.0 10.0 0.00 0.00 0.00 52 1013.5
20260905172101 94 166 2.0 8.0 0.00 0.00 0.00 51 1013.6
20260905171056 93 130 0.0 3.0 0.00 0.00 0.00 55 1013.6
20260905170055 93 215 3.0 7.0 0.00 0.00 0.00 53 1013.7
20260905165120 93 191 2.0 6.0 0.00 0.00 0.00 54 1013.8
20260905164143 92 223 1.0 2.0 0.00 0.00 0.00 55 1013.8
20260905161952 91 227 0.0 7.0 0.00 0.00 0.00 59 1013.9
20260905161006 90 196 2.0 7.0 0.00 0.00 0.00 59 1013.9
20260905155949 89 138 0.0 2.0 0.00 0.00 0.00 61 1013.9
20260905153817 88 270 2.0 6.0 0.00 0.00 0.00 63 1013.9
20260905151655 87 240 1.0 6.0 0.00 0.00 0.00 67 1013.8
20260905150703 87 200 0.0 4.0 0.00 0.00 0.00 67 1013.7
20260905145638 86 239 2.0 6.0 0.00 0.00 0.00 68 1013.7
20260905144700 86 171 1.0 6.0 0.00 0.00 0.00 70 1013.8
20260905143704 85 198 2.0 5.0 0.00 0.00 0.00 71 1013.7
20260905142701 85 266 1.0 6.0 0.00 0.00 0.00 72 1013.7
20260905141633 84 228 2.0 6.0 0.00 0.00 0.00 73 1013.7
20260905140615 83 184 1.0 5.0 0.00 0.00 0.00 75 1013.6
20260905135547 82 194 0.0 4.0 0.00 0.00 0.00 77 1013.6
20260905134602 81 217 0.0 0.0 0.00 0.00 0.00 80 1013.5
20260905132436 78 150 0.0 0.0 0.00 0.00 0.00 85 1013.5
20260905131444 77 150 0.0 0.0 0.00 0.00 0.00 87 1013.5
20260905130418 76 150 0.0 0.0 0.00 0.00 0.00 88 1013.4